Location: Leuk
(46.3174°N, 7.6341°E)
Time: 13:56:43
(UTC+00:00)

Cosmos 2237 Rocket - Pass Details

Date: 09 March 2021
Orbit: 835 x 849 km, 71.0° (Epoch: 18 April)

Event Time Altitude Azimuth Distance (km) Brightness Sun altitude
Rises 03:59:53 0° 337° (NNW) 3,421 5.3 -20.3°
Reaches altitude 10° 04:02:30 10° 345° (NNW) 2,480 4.6 -19.9°
Maximum altitude 04:07:52 41° 55° (NE) 1,205 3.5 -19.0°
Drops below altitude 10° 04:13:11 10° 125° (SE) 2,458 5.2 -18.1°
Sets 04:15:46 0° 133° (SE) 3,386 5.8 -17.7°
